Albany, OH

11:54 PM EST on February 27, 2017 (GMT -0500)
Ohio University

Weather History for KUNI - January, 2013

Change the Weather History Date:

Wednesday, January 2, 2013

  Actual Average (KLHQ) Record (KLHQ)
Temperature  
Mean Temperature 23 °F -  
Max Temperature 31 °F 35 °F 66 °F (2000)
Min Temperature 15 °F 18 °F -13 °F (1968)
Degree Days  
Heating Degree Days 42    
Moisture  
Dew Point 16 °F    
Average Humidity 71    
Maximum Humidity 92    
Minimum Humidity 53    
Precipitation  
Precipitation 0.00 in - - ()
Sea Level Pressure  
Sea Level Pressure 30.18 in    
Wind  
Wind Speed 2 mph (WNW)    
Max Wind Speed 8 mph    
Max Gust Speed -    
Visibility 10 miles    
Events      
Averages and records for this station are not official NWS values.
T = Trace of Precipitation, MM = Missing Value Source: NWS Daily Summary

Daily Weather History Graph

Daily Weather History Graph

Search for Another Location

Airport or City:

Trip Planner

Search our weather history database for the weather conditions in past years. The results will help you decide how hot, cold, wet, or windy it might be!

Date:

Astronomy

Jan. 02, 2013 Rise Set
Actual Time 7:48 AM EST 5:17 PM EST
Civil Twilight 7:18 AM EST 5:47 PM EST
Nautical Twilight 6:45 AM EST 6:21 PM EST
Astronomical Twilight 6:12 AM EST 6:53 PM EST
Moon 10:46 PM EST (1/2) 10:32 AM EST (1/2)
Length of Visible Light 10h 29m
Length of Day
9h 29m
Waning Gibbous, 75% of the Moon is Illuminated
Jan 2
Waning Gibbous
Jan 4
Last Quarter
Jan 11
New
Jan 18
First Quarter
Jan 26
Full

Hourly Weather History & Observations

Time (EST) Temp. Windchill Dew Point Humidity Pressure Visibility Wind Dir Wind Speed Gust Speed Precip Events Conditions
12:15 AM 25.3 °F 19.7 °F 14.7 °F 64% 30.13 in 10.0 mi NNW 4.6 mph - N/A   Overcast
12:35 AM 24.8 °F 16.1 °F 13.8 °F 63% 30.13 in 10.0 mi North 8.1 mph - N/A   Overcast
1:15 AM 24.6 °F 20.3 °F 14.4 °F 65% 30.11 in 10.0 mi NNW 3.5 mph - N/A   Overcast
1:35 AM 24.4 °F 18.6 °F 14.0 °F 65% 30.12 in 10.0 mi North 4.6 mph - N/A   Overcast
1:55 AM 23.9 °F 18.0 °F 14.0 °F 66% 30.12 in 10.0 mi North 4.6 mph - N/A   Scattered Clouds
2:15 AM 23.5 °F 19.1 °F 13.6 °F 66% 30.11 in 10.0 mi NNW 3.5 mph - N/A   Clear
2:35 AM 23.0 °F - 13.6 °F 67% 30.12 in 10.0 mi Calm Calm - N/A   Clear
2:55 AM 22.8 °F - 13.5 °F 67% 30.12 in 10.0 mi Calm Calm - N/A   Clear
3:15 AM 22.8 °F - 13.5 °F 67% 30.13 in 10.0 mi Calm Calm - N/A   Clear
3:35 AM 22.5 °F - 13.6 °F 69% 30.12 in 10.0 mi Calm Calm - N/A   Clear
3:55 AM 21.6 °F - 15.6 °F 78% 30.13 in 10.0 mi Calm Calm - N/A   Mostly Cloudy
4:15 AM 22.1 °F - 14.9 °F 74% 30.13 in 10.0 mi Calm Calm - N/A   Overcast
4:35 AM 22.1 °F - 14.7 °F 73% 30.14 in 10.0 mi Calm Calm - N/A   Mostly Cloudy
4:55 AM 21.7 °F - 13.8 °F 72% 30.14 in 10.0 mi Calm Calm - N/A   Scattered Clouds
5:15 AM 21.2 °F - 14.0 °F 74% 30.15 in 10.0 mi Calm Calm - N/A   Clear
5:35 AM 19.8 °F - 14.7 °F 81% 30.14 in 10.0 mi Calm Calm - N/A   Clear
5:55 AM 19.8 °F - 14.7 °F 81% 30.15 in 10.0 mi Calm Calm - N/A   Clear
6:15 AM 18.9 °F - 14.9 °F 85% 30.15 in 10.0 mi Calm Calm - N/A   Clear
6:35 AM 18.9 °F - 14.5 °F 83% 30.16 in 7.0 mi Calm Calm - N/A   Clear
6:55 AM 18.0 °F - 14.0 °F 84% 30.16 in 10.0 mi Calm Calm - N/A   Clear
7:15 AM 17.4 °F - 14.5 °F 88% 30.18 in 10.0 mi Calm Calm - N/A   Clear
7:35 AM 16.9 °F - 14.4 °F 90% 30.17 in 10.0 mi Calm Calm - N/A   Clear
7:55 AM 16.0 °F - 13.5 °F 90% 30.17 in 10.0 mi Calm Calm - N/A   Clear
8:15 AM 15.6 °F - 12.9 °F 89% 30.18 in 10.0 mi Calm Calm - N/A   Clear
8:35 AM 15.8 °F - 13.8 °F 92% 30.19 in 10.0 mi Calm Calm - N/A   Clear
8:55 AM 16.3 °F - 14.2 °F 91% 30.19 in 10.0 mi Calm Calm - N/A   Clear
9:35 AM 18.9 °F - 16.0 °F 89% 30.20 in 10.0 mi Calm Calm - N/A   Clear
9:55 AM 21.4 °F - 16.2 °F 80% 30.21 in 10.0 mi Calm Calm - N/A   Clear
10:15 AM 24.1 °F 19.7 °F 15.6 °F 70% 30.21 in 10.0 mi SSW 3.5 mph - N/A   Clear
10:35 AM 24.6 °F - 15.6 °F 69% 30.22 in 10.0 mi Calm Calm - N/A   Clear
11:15 AM 27.0 °F 21.6 °F 15.6 °F 62% 30.22 in 10.0 mi West 4.6 mph - N/A   Clear
11:35 AM 27.9 °F 24.0 °F 16.0 °F 61% 30.23 in 10.0 mi SSW 3.5 mph - N/A   Clear
11:55 AM 28.4 °F - 16.0 °F 60% 30.22 in 10.0 mi Calm Calm - N/A   Clear
12:15 PM 29.3 °F - 16.2 °F 58% 30.21 in 10.0 mi Calm Calm - N/A   Scattered Clouds
12:35 PM 28.9 °F 23.9 °F 16.2 °F 59% 30.21 in 10.0 mi West 4.6 mph - N/A   Scattered Clouds
1:15 PM 29.3 °F 23.2 °F 17.1 °F 60% 30.20 in 10.0 mi West 5.8 mph - N/A   Scattered Clouds
1:35 PM 30.7 °F - 16.5 °F 56% 30.20 in 10.0 mi Calm Calm - N/A   Mostly Cloudy
1:55 PM 30.9 °F - 16.7 °F 56% 30.19 in 10.0 mi Calm Calm - N/A   Mostly Cloudy
2:15 PM 30.2 °F - 16.0 °F 56% 30.19 in 10.0 mi Calm Calm - N/A   Scattered Clouds
2:35 PM 31.1 °F - 16.9 °F 56% 30.18 in 10.0 mi Calm Calm - N/A   Mostly Cloudy
2:55 PM 31.1 °F - 16.3 °F 54% 30.17 in 10.0 mi Calm Calm - N/A   Scattered Clouds
3:15 PM 30.2 °F - 16.0 °F 56% 30.18 in 10.0 mi Calm Calm - N/A   Clear
3:35 PM 31.1 °F - 15.8 °F 53% 30.19 in 10.0 mi Calm Calm - N/A   Clear
3:55 PM 31.1 °F - 17.6 °F 57% 30.18 in 10.0 mi Calm Calm - N/A   Clear
4:15 PM 31.5 °F 28.1 °F 17.1 °F 55% 30.18 in 10.0 mi West 3.5 mph - N/A   Clear
4:35 PM 30.7 °F - 15.8 °F 54% 30.19 in 10.0 mi Calm Calm - N/A   Clear
5:35 PM 29.3 °F - 16.3 °F 58% 30.19 in 10.0 mi Calm Calm - N/A   Clear
5:55 PM 28.0 °F - 17.4 °F 64% 30.18 in 10.0 mi Calm Calm - N/A   Clear
6:15 PM 26.4 °F - 17.8 °F 70% 30.19 in 10.0 mi Calm Calm - N/A   Clear
6:35 PM 25.9 °F - 17.8 °F 71% 30.19 in 10.0 mi Calm Calm - N/A   Clear
6:55 PM 25.5 °F - 18.9 °F 76% 30.20 in 10.0 mi Calm Calm - N/A   Clear
7:15 PM 26.1 °F - 17.6 °F 70% 30.20 in 10.0 mi Calm Calm - N/A   Clear
7:35 PM 25.0 °F - 17.8 °F 74% 30.20 in 10.0 mi Calm Calm - N/A   Clear
7:55 PM 25.2 °F - 18.3 °F 75% 30.21 in 10.0 mi Calm Calm - N/A   Clear
8:15 PM 24.8 °F - 18.1 °F 76% 30.22 in 10.0 mi Calm Calm - N/A   Clear
8:35 PM 24.8 °F - 19.0 °F 79% 30.22 in 10.0 mi Calm Calm - N/A   Clear
9:15 PM 24.6 °F - 17.4 °F 74% 30.22 in 10.0 mi Calm Calm - N/A   Clear
9:35 PM 24.3 °F - 17.6 °F 76% 30.23 in 10.0 mi Calm Calm - N/A   Clear
9:55 PM 23.9 °F - 18.1 °F 79% 30.23 in 10.0 mi Calm Calm - N/A   Clear
10:15 PM 23.9 °F - 18.3 °F 79% 30.23 in 10.0 mi Calm Calm - N/A   Clear
10:35 PM 23.5 °F - 18.5 °F 81% 30.23 in 10.0 mi Calm Calm - N/A   Clear
10:55 PM 22.8 °F - 18.5 °F 83% 30.23 in 10.0 mi Calm Calm - N/A   Clear
11:15 PM 23.2 °F - 18.5 °F 82% 30.23 in 10.0 mi Calm Calm - N/A   Clear
11:35 PM 23.2 °F - 17.8 °F 80% 30.22 in 10.0 mi Calm Calm - N/A   Clear
11:55 PM 22.6 °F - 18.3 °F 83% 30.22 in 10.0 mi Calm Calm - N/A   Clear